Miscellaneous Local Product
Issued by NWS North Platte, NE

Home | Current Version | Previous Version | Graphics & Text | Print | Product List | Glossary On
Versions: 1 2 3 4 5 6 7 8 9 10 11 12 13 14 15 16 17 18 19 20 21 22 23 24 25 26 27 28 29 30 31 32 33 34 35 36 37 38 39 40 41 42 43 44 45 46 47 48 49 50
308
AXUS43 KLBF 241310
MISLBF


WESTERN AND NORTH CENTRAL NEBRASKA HOURLY WEATHER ROUNDUP
NATIONAL WEATHER SERVICE NORTH PLATTE NE
800 AM CDT SUN JUL 24 2016

NOTE: "FAIR" INDICATES FEW OR NO CLOUDS BELOW 12,000 FEET WITH NO
SIGNIFICANT WEATHER AND/OR OBSTRUCTIONS TO VISIBILITY.

NOTE: STATIONS NOT REPORTING VARIABLES SUCH AS SKY/WEATHER OR
PRESSURE ARE PROVIDED BY RAWS AND APRS NETWORKS AND ARE NOT UNDER
NATIONAL WEATHER SERVICE QUALITY CONTROL.

...OBSERVATIONS IN AND NEAR THE EASTERN PANHANDLE OF NEBRASKA...

CITY           SKY/WX    TMP DP  RH WIND       PRES   REMARKS
PINE RIDGE     CLOUDY    62  53  72 E7        30.12R
CHADRON        PTSUNNY   60  50  69 NW3       30.13R
ALLIANCE       MOSUNNY   64  58  80 NE3       30.14R
SIDNEY         CLOUDY    65  57  75 S5        30.16F
CRESCENT LAKE    N/A     66  58  77 SE5G18      N/A
$$

...OBSERVATIONS IN NORTHERN NEBRASKA AND FAR SOUTHERN SOUTH DAKOTA...

CITY           SKY/WX    TMP DP  RH WIND       PRES   REMARKS
WINNER         CLOUDY    68  55  63 N5        30.05F
VALENTINE      CLOUDY    68  51  54 N14       30.06R
THEDFORD       CLOUDY    68  60  75 NE3       30.07R
AINSWORTH      CLOUDY    66  61  84 N13       30.06S
O`NEILL        SUNNY     70  64  81 N7        30.02R
ORD            MOSUNNY   69  64  84 W3        29.99R
BROKEN BOW     CLOUDY    69  62  78 NE5       30.02R
VALENTINE NWR    N/A     67  57  71 CALM        N/A
BUTTE            N/A     68  61  78 NW8         N/A
HALSEY           N/A     66  60  81 N3          N/A
EWING            N/A     70  67  89 CALM        N/A
$$

...OBSERVATIONS IN SOUTHWEST NEBRASKA AND FAR NORTHEAST COLORADO...

CITY           SKY/WX    TMP DP  RH WIND       PRES   REMARKS
WRAY           FAIR      63  59  88 CALM      30.09R
HOLYOKE        FAIR      68  59  73 W5        30.12R
IMPERIAL       CLOUDY    70  62  76 CALM      30.07R
OGALLALA       PTSUNNY   68  60  74 NW6       30.10R
NORTH PLATTE   PTSUNNY   69  59  70 S10       30.05R
MCCOOK         CLOUDY    70  62  76 SE6       30.03R
LEXINGTON      CLOUDY    70  61  75 E9        30.01R
STAPLETON        N/A     69  62  79 CALM        N/A
GOTHENBURG       N/A     70  55  59 E3          N/A
CALLAWAY         N/A     69  59  71 E8          N/A
$$

...OBSERVATIONS IN CENTRAL LINCOLN COUNTY AREA...

CITY           SKY/WX    TMP DP  RH WIND       PRES   REMARKS
N.P. AIRPORT   PTSUNNY   69  59  70 S10       30.05R
N.P. DOWNTOWN    N/A     72  60  64 CALM        N/A
N.P. SOUTHEAST   N/A     71  59  66 CALM        N/A
N.P. HILLCREST   N/A     70  59  67 SE12        N/A
$$

...SOME OBSERVATIONS FROM AROUND THE REGION...

CITY           SKY/WX    TMP DP  RH WIND       PRES   REMARKS
DENVER         CLOUDY    64  52  64 E6        30.16F
LARAMIE        CLOUDY    55  45  68 E6        30.28R
CHEYENNE       CLOUDY    66  48  52 SE9       30.19R
SCOTTSBLUFF    MOSUNNY   67  57  70 NW10      30.12R
RAPID CITY     CLOUDY    62  56  80 CALM      30.13R
BISMARCK       MOSUNNY   64  56  75 W8        30.01R
PIERRE         LGT RAIN  65  60  84 NW9       30.04F
SIOUX FALLS    CLOUDY    70  66  87 NW10      29.95R
OMAHA          MOSUNNY   79  73  82 N6        29.90R
GRAND ISLAND   PTSUNNY   71  66  84 N6        29.98R
KANSAS CITY    CLOUDY    80  72  76 SW10      29.91R
WICHITA        CLOUDY    79  69  71 S7        29.93S
OKLAHOMA CITY  MOSUNNY   78  72  81 S5        29.97R
DALLAS         MOSUNNY   84  71  65 S8        29.94R
AMARILLO       SUNNY     74  59  59 S12       30.06R
DODGE CITY     CLOUDY    74  67  78 CALM      29.96R
HAYS           CLOUDY    77  61  57 W5        29.93R
GOODLAND       MOSUNNY   71  64  78 NE7       30.06R
$$




USA.gov is the U.S. government's official web portal to all federal, state and local government web resources and services.